Date,TemperatureHighF,TemperatureAvgF,TemperatureLowF,DewpointHighF,DewpointAvgF,DewpointLowF,HumidityHigh,HumidityAvg,HumidityLow,PressureMaxIn,PressureMinIn,WindSpeedMaxMPH,WindSpeedAvgMPH,GustSpeedMaxMPH,PrecipitationSumIn
2013-1-1,37.9,25.2,16.0,12.9,3.6,-1.7,55,40,30,30.09,30.03,6,1,8,0.04
2013-1-2,41.7,29.4,20.3,11.0,3.4,-2.9,44,33,23,30.09,30.03,7,2,12,0.00
2013-1-3,43.3,30.7,22.1,6.4,0.3,-6.2,36,27,20,30.15,30.06,7,1,15,0.00
2013-1-4,49.6,31.3,18.5,11.6,0.2,-9.3,33,26,19,30.18,30.12,5,0,8,0.00
2013-1-5,52.2,36.1,25.0,15.8,4.2,-3.8,39,26,19,30.21,30.09,6,1,10,0.00
2013-1-6,33.6,28.9,24.4,25.3,17.4,0.5,90,66,25,30.09,29.88,10,4,21,0.00
2013-1-7,36.7,29.0,20.5,21.9,12.8,5.0,92,55,31,30.06,29.88,8,3,18,0.08
2013-1-8,52.7,40.2,31.8,23.9,17.9,6.3,64,42,26,30.21,30.06,6,2,16,0.00
2013-1-9,55.4,40.6,31.3,25.8,19.9,13.5,62,45,27,30.21,29.97,13,3,21,0.00
2013-1-10,38.1,25.6,14.7,29.4,16.7,8.8,98,73,32,29.97,29.73,13,7,26,0.00
2013-1-11,25.9,19.2,10.0,11.3,8.6,5.4,82,64,44,29.91,29.82,6,2,11,0.00
2013-1-12,28.6,15.5,6.8,13.8,1.7,-5.2,82,58,26,29.91,29.85,6,0,9,0.00
2013-1-13,29.7,14.7,3.8,8.8,-2.0,-8.4,69,48,31,29.94,29.85,6,1,10,0.00
2013-1-14,23.1,15.5,4.5,3.8,-5.7,-9.5,53,39,25,30.09,29.91,9,4,23,0.00
2013-1-15,38.3,29.6,22.1,16.1,11.9,2.6,56,47,40,30.30,30.09,8,4,22,0.00
2013-1-16,48.7,37.7,27.3,17.1,12.8,6.4,56,37,27,30.30,30.21,7,2,17,0.00
2013-1-17,50.9,37.3,25.7,13.7,6.7,-0.1,41,28,19,30.26,30.18,6,1,8,0.00
2013-1-18,52.9,35.2,23.7,18.9,9.1,1.5,51,35,22,30.24,30.15,5,0,6,0.00
2013-1-19,51.4,33.1,22.5,14.0,2.4,-3.4,36,28,19,30.26,30.18,6,1,8,0.00
2013-1-20,52.7,34.8,23.4,13.6,2.3,-4.7,32,25,18,30.21,30.15,5,0,9,0.00
2013-1-21,53.4,42.3,30.6,13.6,5.0,-1.9,26,21,18,30.21,30.15,5,1,8,0.00
2013-1-22,58.7,48.2,35.6,19.2,12.8,7.2,33,24,19,30.21,30.15,7,1,13,0.00
2013-1-23,57.4,45.3,39.7,33.8,25.3,15.7,79,46,31,30.21,30.12,7,1,13,0.00
2013-1-24,50.2,41.6,36.9,48.0,39.4,34.0,98,92,74,30.18,30.09,6,1,11,0.87
2013-1-25,46.8,40.6,37.2,46.0,40.0,36.7,98,97,93,30.21,30.00,2,0,6,0.28
2013-1-26,47.0,39.6,34.9,44.1,38.4,34.4,98,96,76,30.00,29.94,6,1,12,0.04
2013-1-27,36.0,29.6,20.8,35.5,28.0,18.4,98,94,81,29.97,29.82,12,5,22,0.04
2013-1-28,30.2,21.4,15.3,21.0,16.4,11.0,96,82,54,30.00,29.85,7,2,12,0.00
2013-1-29,48.7,34.4,17.1,23.8,17.4,7.7,85,51,34,30.18,30.00,8,2,15,0.04
2013-1-30,52.3,40.4,32.4,22.7,18.1,14.0,57,42,27,30.26,30.18,6,1,13,0.00
2013-1-31,54.5,40.5,30.0,23.6,20.4,17.4,60,46,26,30.26,30.18,5,1,10,0.00
2013-2-1,58.6,40.7,28.2,26.0,20.9,13.3,66,47,22,30.26,30.18,6,1,9,0.00
2013-2-2,57.9,43.9,32.5,31.9,22.5,15.6,76,45,25,30.26,30.21,6,0,8,0.00
2013-2-3,50.1,40.0,32.2,42.2,29.2,17.7,98,68,41,30.21,30.09,6,0,12,0.16
2013-2-4,53.6,39.0,29.0,28.8,20.0,9.1,79,50,27,30.15,30.06,6,0,9,0.00
2013-2-5,56.8,40.6,28.2,25.3,15.3,5.1,54,37,20,30.09,30.00,7,1,11,0.00
2013-2-6,50.4,38.1,26.8,19.9,9.1,-3.5,51,31,19,30.09,29.97,6,1,12,0.00
2013-2-7,52.7,35.8,25.2,26.2,10.1,-5.0,94,39,18,30.09,29.85,13,3,22,0.00
2013-2-8,27.2,22.7,19.4,25.2,18.5,14.7,92,84,70,29.85,29.70,12,5,21,0.00
2013-2-9,36.0,23.2,15.1,21.6,16.6,10.3,92,77,46,29.91,29.73,6,1,12,0.04
2013-2-10,22.5,16.4,12.2,17.0,11.3,7.8,82,80,70,29.91,29.88,0,0,0,0.04
2013-2-11,30.8,23.6,17.4,18.9,6.0,-3.8,85,50,31,30.09,29.91,8,2,20,0.04
2013-2-12,42.1,30.2,18.0,12.8,4.9,-2.5,50,34,28,30.18,30.09,6,1,12,0.04
2013-2-13,49.1,36.1,26.4,18.6,13.4,5.4,65,40,27,30.21,30.15,6,1,12,0.00
2013-2-14,47.1,35.9,24.1,23.8,16.3,11.5,80,47,30,30.21,30.15,7,2,12,0.00
2013-2-15,50.4,40.9,32.5,16.7,9.2,-0.2,48,28,19,30.30,30.18,9,4,15,0.00
2013-2-16,59.1,43.2,29.6,16.8,6.8,-0.6,32,22,17,30.30,30.06,7,1,10,0.00
2013-2-17,52.0,38.8,26.4,17.9,10.8,3.1,51,32,21,30.06,29.94,8,2,15,0.00
2013-2-18,53.2,36.8,23.5,17.3,8.9,-1.2,43,32,21,30.00,29.91,9,2,15,0.00
2013-2-19,45.3,30.8,22.5,27.6,12.6,-4.6,95,54,20,29.91,29.56,10,3,20,0.00
2013-2-20,34.2,23.3,15.4,22.1,17.1,11.6,95,78,58,29.85,29.53,10,2,17,0.00
2013-2-21,35.2,23.3,15.2,16.9,8.8,1.2,84,55,35,29.97,29.85,6,1,14,0.04
2013-2-22,46.2,29.9,15.4,16.6,9.2,0.0,62,42,28,30.12,29.97,6,1,11,0.08
2013-2-23,49.5,35.1,23.7,21.6,14.7,5.0,78,46,26,30.09,29.88,8,2,15,0.00
2013-2-24,33.1,26.1,19.4,4.4,-1.6,-6.5,43,30,23,30.12,29.94,10,4,24,0.00
2013-2-25,50.5,34.9,20.3,14.9,4.7,-6.4,43,28,21,30.12,30.03,7,2,12,0.00
2013-2-26,48.5,35.1,25.2,15.0,5.7,-2.9,42,29,22,30.12,30.00,6,1,11,0.00
2013-2-27,46.4,33.5,21.9,11.4,3.5,-1.1,46,29,21,30.26,30.12,7,1,13,0.00
2013-2-28,50.5,37.4,25.3,16.7,7.3,0.1,34,28,22,30.35,30.24,7,1,15,0.00
2013-3-1,55.5,43.2,31.6,20.2,12.7,7.1,43,29,21,30.35,30.30,7,2,9,0.00
2013-3-2,64.2,44.8,30.0,21.6,13.3,5.0,36,28,18,30.32,30.18,8,1,13,0.00
2013-3-3,54.7,43.8,34.3,29.9,19.9,7.4,83,41,26,30.18,29.97,13,6,23,0.00
2013-3-4,57.2,40.8,31.3,32.2,27.0,15.4,91,63,25,30.12,29.97,6,1,13,0.00
2013-3-5,55.8,43.0,32.5,35.4,22.6,8.6,76,46,27,30.12,30.00,8,3,15,0.00
2013-3-6,52.9,39.3,30.6,27.8,20.4,6.7,87,50,23,30.03,29.94,13,4,20,0.00
2013-3-7,45.7,33.0,25.6,31.5,27.5,21.3,97,82,44,29.94,29.79,7,2,13,0.00
2013-3-8,33.4,27.9,23.5,27.5,22.4,15.3,98,81,52,29.88,29.70,12,3,20,0.04
2013-3-9,42.3,32.4,24.3,27.1,22.0,13.8,94,68,43,30.15,29.88,8,2,18,0.08
2013-3-10,50.4,37.8,28.9,16.6,11.2,4.7,55,35,21,30.24,30.12,7,2,16,0.00
2013-3-11,60.8,43.1,27.0,21.4,11.3,3.7,48,28,19,30.24,30.15,7,1,9,0.00
2013-3-12,65.1,46.3,32.2,25.1,17.1,6.5,45,32,20,30.24,30.15,5,0,8,0.00
2013-3-13,70.3,50.7,34.5,26.4,19.0,12.7,52,31,17,30.30,30.24,5,1,8,0.00
2013-3-14,74.3,53.7,37.9,32.6,20.8,12.4,41,29,18,30.30,30.24,6,0,11,0.00
2013-3-15,70.5,56.5,41.6,30.6,23.1,16.6,41,29,17,30.24,30.09,8,2,13,0.00
2013-3-16,67.3,52.7,41.5,27.1,17.9,10.4,43,26,17,30.09,30.03,7,1,13,0.00
2013-3-17,66.7,50.1,37.0,24.5,15.5,7.3,44,26,15,30.06,30.00,7,1,12,0.00
2013-3-18,65.7,50.2,36.1,24.5,14.0,1.1,30,24,18,30.09,30.03,8,1,12,0.00
2013-3-19,62.4,49.1,37.2,26.1,21.0,11.6,47,34,24,30.15,30.06,7,2,13,0.00
2013-3-20,60.4,49.5,41.0,32.0,27.6,21.8,64,44,27,30.15,30.03,9,3,20,0.00
2013-3-21,67.1,49.9,37.4,30.6,20.8,9.2,71,35,15,30.03,29.88,10,2,13,0.00
2013-3-22,61.3,45.5,33.1,25.7,12.2,0.6,59,27,17,29.97,29.85,7,3,13,0.00
2013-3-23,61.7,46.3,29.2,20.7,12.4,-0.8,43,26,16,30.06,29.97,8,2,13,0.00
2013-3-24,62.6,47.6,34.3,23.1,15.2,8.8,39,28,18,30.06,30.03,7,1,12,0.00
2013-3-25,66.6,49.0,34.7,27.3,16.4,7.1,48,28,17,30.06,30.03,8,2,13,0.00
2013-3-26,64.2,49.5,39.4,28.2,18.8,12.6,51,31,18,30.06,29.97,8,2,13,0.00
2013-3-27,58.5,45.7,37.0,34.0,27.4,19.6,83,51,31,30.06,29.94,9,2,17,0.00
2013-3-28,63.7,47.1,36.5,37.2,29.0,25.0,80,54,25,30.15,30.03,8,1,13,0.00
2013-3-29,68.0,50.4,33.8,35.6,28.3,20.8,77,47,18,30.18,30.12,6,1,10,0.00
2013-3-30,67.9,53.7,42.3,35.1,29.7,24.0,75,44,23,30.15,30.12,7,2,13,0.00
2013-3-31,57.5,45.4,35.6,36.1,31.3,26.2,88,60,31,30.12,30.03,8,2,13,0.00
2013-4-1,57.9,42.4,29.8,32.3,22.2,13.4,89,49,20,30.09,30.03,7,1,13,0.00
2013-4-2,63.0,44.3,29.7,29.5,22.4,17.6,85,47,21,30.12,30.03,7,1,11,0.00
2013-4-3,68.0,48.7,34.0,34.7,26.4,17.6,76,46,22,30.18,30.12,7,1,13,0.00
2013-4-4,67.5,50.8,38.8,36.9,26.2,16.1,68,43,17,30.18,30.09,8,2,13,0.00
2013-4-5,64.4,48.1,36.7,36.7,30.5,19.8,90,56,23,30.09,30.03,7,2,13,0.00
2013-4-6,67.4,49.7,36.6,29.1,21.2,12.8,47,33,22,30.09,30.03,7,2,15,0.00
2013-4-7,66.9,50.4,37.9,35.8,24.5,14.2,64,38,23,30.06,29.88,5,1,10,0.00
2013-4-8,45.3,36.7,30.4,34.7,25.2,16.3,97,65,36,29.91,29.65,13,5,27,0.00
2013-4-9,46.6,36.6,25.3,24.8,11.4,-4.3,79,38,12,30.06,29.79,8,2,17,0.00
2013-4-10,57.6,44.8,35.4,16.2,10.5,7.1,31,25,17,30.15,30.03,10,3,23,0.00
2013-4-11,65.8,49.7,36.5,27.0,18.9,8.7,50,30,20,30.15,29.91,8,2,15,0.00
2013-4-12,67.3,49.6,36.1,32.6,24.7,20.7,60,40,23,30.03,29.91,6,0,8,0.00
2013-4-13,64.8,50.6,42.3,27.1,19.4,4.0,40,30,20,30.03,29.91,13,4,22,0.00
2013-4-14,68.9,53.3,41.9,28.6,22.7,15.1,41,31,20,29.94,29.85,8,3,16,0.00
2013-4-15,64.3,45.7,33.4,33.3,23.2,10.5,94,47,17,29.85,29.79,12,4,20,0.00
2013-4-16,46.2,35.4,27.0,24.6,14.8,8.0,83,44,28,29.91,29.76,10,4,21,0.00
2013-4-17,46.2,34.3,23.5,19.7,9.6,0.5,76,39,22,30.12,29.91,6,2,14,0.00
2013-4-18,52.2,39.6,27.1,11.7,4.8,-1.0,31,24,18,30.24,30.12,7,2,14,0.00
2013-4-19,65.8,50.1,34.7,21.1,10.9,-0.1,28,21,17,30.24,30.12,7,2,13,0.00
2013-4-20,73.6,54.1,37.9,28.5,19.4,9.6,42,26,16,30.15,30.09,7,1,15,0.00
2013-4-21,73.4,54.9,38.7,29.3,21.7,13.4,43,29,16,30.18,30.12,8,1,12,0.00
2013-4-22,75.4,58.1,46.8,31.6,21.2,8.1,43,25,15,30.15,30.00,6,1,13,0.00
2013-4-23,71.1,54.6,44.6,26.6,21.3,16.3,49,28,17,30.09,30.00,6,1,12,0.00
2013-4-24,70.0,53.8,41.7,37.3,23.0,15.3,50,31,17,30.06,29.97,6,1,12,0.00
2013-4-25,67.2,51.9,38.7,31.4,22.8,17.6,57,34,18,30.15,29.94,6,1,11,0.00
2013-4-26,72.0,53.3,37.0,26.9,19.2,11.2,39,27,16,30.26,30.15,7,1,10,0.00
2013-4-27,72.1,55.8,39.2,27.9,20.2,11.2,42,27,16,30.30,30.21,7,1,15,0.00
2013-4-28,78.1,59.3,43.0,30.2,22.7,15.6,36,26,15,30.21,30.09,7,1,12,0.00
2013-4-29,76.5,59.1,45.0,29.4,21.8,14.6,37,25,15,30.12,30.00,10,2,17,0.00
2013-4-30,75.0,59.6,48.6,33.6,24.3,14.7,39,26,18,30.00,29.94,8,1,13,0.00
2013-5-1,65.0,53.4,44.2,27.0,16.2,6.7,48,24,16,30.26,29.97,9,2,20,0.00
2013-5-2,64.0,52.2,42.1,16.2,10.2,4.6,27,18,16,30.30,30.24,8,3,15,0.00
2013-5-3,75.9,55.1,34.7,25.6,16.1,2.8,41,22,15,30.24,30.03,7,1,12,0.00
2013-5-4,70.9,54.0,41.7,32.1,17.4,6.1,54,26,10,30.06,29.82,8,2,17,0.00
2013-5-5,55.7,44.9,38.1,37.9,22.9,13.0,91,45,27,29.94,29.88,8,2,15,0.00
2013-5-6,46.9,39.5,34.0,42.5,37.2,32.2,98,92,70,30.00,29.91,10,3,22,0.04
2013-5-7,52.9,40.4,32.4,36.0,31.8,28.5,96,74,41,30.03,29.94,7,2,13,0.00
2013-5-8,60.9,44.2,32.7,41.0,34.8,29.5,98,75,34,30.09,30.03,6,1,9,0.00
2013-5-9,64.2,46.8,34.9,43.8,36.0,25.2,98,74,25,30.15,30.09,5,1,10,0.20
2013-5-10,65.5,53.4,40.6,43.3,32.5,22.8,96,52,25,30.26,30.15,6,1,15,0.00
2013-5-11,73.4,59.1,42.4,37.8,27.2,20.4,67,32,19,30.30,30.24,7,1,15,0.00
2013-5-12,78.7,60.5,45.0,32.4,19.8,8.5,40,25,8,30.32,30.24,6,1,12,0.00
2013-5-13,80.8,63.5,48.0,37.6,28.1,22.6,44,28,17,30.26,30.21,7,2,13,0.00
2013-5-14,74.8,60.6,48.4,28.8,22.7,16.7,30,24,16,30.21,30.09,12,3,20,0.00
2013-5-15,75.8,58.2,47.3,35.1,28.1,15.9,50,33,20,30.15,30.09,7,2,13,0.00
2013-5-16,72.9,58.6,46.8,27.8,22.3,15.0,40,26,16,30.09,30.00,8,3,15,0.00
2013-5-17,64.4,51.7,42.3,39.4,31.9,23.8,86,50,26,30.06,29.97,8,3,15,0.00
2013-5-18,70.0,53.8,37.6,38.2,28.4,23.1,88,42,19,30.09,30.03,9,2,14,0.00
2013-5-19,74.3,57.5,41.1,29.8,22.0,15.2,40,26,16,30.12,30.09,7,1,12,0.00
2013-5-20,73.2,57.3,41.5,30.4,22.5,10.8,58,28,17,30.15,30.12,6,1,10,0.00
2013-5-21,72.0,57.2,42.4,33.3,22.9,10.8,39,27,18,30.15,30.00,9,3,15,0.00
2013-5-22,68.7,56.7,47.1,35.4,22.5,10.2,45,27,17,30.03,29.88,10,5,18,0.00
2013-5-23,66.2,53.6,43.7,21.2,12.5,5.2,27,19,15,30.00,29.88,10,3,17,0.00
2013-5-24,68.7,54.4,39.7,33.6,15.7,2.8,45,22,15,30.06,29.97,9,2,13,0.00
2013-5-25,69.3,55.9,45.1,22.4,13.6,6.3,33,19,15,30.09,30.00,8,2,14,0.00
2013-5-26,69.3,55.2,44.2,34.6,20.3,5.8,58,27,19,30.09,30.03,9,2,15,0.00
2013-5-27,72.3,57.6,43.3,35.7,27.7,21.3,56,34,16,30.09,30.00,7,2,12,0.00
2013-5-28,68.0,55.5,46.2,35.2,28.8,21.9,57,37,24,30.03,29.94,9,3,16,0.00
2013-5-29,71.1,58.6,45.1,44.2,28.6,18.6,62,34,17,30.03,29.97,9,3,20,0.00
2013-5-30,78.5,63.4,46.9,35.7,27.1,18.9,41,27,15,30.09,29.97,7,2,13,0.00
2013-5-31,77.9,66.3,54.3,30.8,23.0,14.0,27,19,15,30.15,30.06,5,1,13,0.00
2013-6-1,80.2,66.3,51.3,33.4,26.5,20.6,41,23,15,30.15,30.09,6,1,12,0.00
2013-6-2,78.6,65.8,52.5,35.8,27.9,20.2,34,24,18,30.12,30.00,8,2,16,0.00
2013-6-3,77.4,64.3,50.0,32.7,23.1,15.5,29,21,15,30.06,29.97,8,2,13,0.00
2013-6-4,77.9,63.5,48.2,26.5,19.4,5.2,26,19,10,30.12,30.03,6,1,13,0.00
2013-6-5,81.9,65.9,49.5,31.1,18.4,-3.0,27,17,7,30.15,30.12,7,1,12,0.00
2013-6-6,84.7,67.5,52.0,33.0,22.9,3.0,29,19,11,30.15,30.12,7,1,13,0.00
2013-6-7,84.7,69.4,54.3,33.8,24.2,4.7,28,19,6,30.15,30.09,3,0,8,0.04
2013-6-8,88.1,71.1,56.7,36.0,21.7,8.6,28,18,6,30.15,30.09,6,1,13,0.00
2013-6-9,81.5,69.2,57.7,30.8,22.4,6.6,23,17,7,30.15,30.09,8,2,13,0.00
2013-6-10,69.6,60.9,52.9,28.0,8.8,-1.8,24,13,10,30.12,30.03,13,4,22,0.00
2013-6-11,78.9,65.3,52.9,31.7,10.5,-0.2,36,13,7,30.21,30.09,8,1,12,0.00
2013-6-12,78.4,65.4,55.2,32.7,8.1,3.5,21,11,8,30.18,30.15,8,2,15,0.04
2013-6-13,78.3,64.7,52.3,30.8,7.2,-1.8,25,10,8,30.18,30.12,8,2,12,0.04
2013-6-14,77.9,63.7,48.7,19.1,5.3,-3.6,12,10,8,30.12,30.06,7,2,13,0.00
2013-6-15,75.2,63.1,50.6,11.7,4.6,-2.1,17,10,8,30.12,30.06,7,2,13,0.00
2013-6-16,78.6,62.6,45.5,27.3,8.3,-4.4,26,13,8,30.18,30.12,6,1,12,0.00
2013-6-17,80.8,64.5,46.8,32.9,22.9,9.9,28,21,14,30.18,30.12,7,1,11,0.04
2013-6-18,80.2,64.7,52.5,28.3,22.4,15.2,28,21,15,30.12,30.03,8,2,15,0.00
2013-6-19,75.9,62.2,50.0,33.0,22.0,13.9,27,22,15,30.03,29.97,6,2,10,0.00
2013-6-20,76.6,62.2,48.6,30.5,21.0,8.2,37,21,15,30.06,30.00,8,1,10,0.00
2013-6-21,77.9,64.1,52.3,33.6,25.9,19.0,35,24,15,30.09,30.03,6,1,10,0.00
2013-6-22,78.8,64.6,51.6,38.9,27.2,18.0,37,25,15,30.09,30.03,7,1,11,0.04
2013-6-23,73.8,61.9,52.5,34.8,29.1,24.6,46,30,18,30.06,29.97,7,2,12,0.00
2013-6-24,67.6,58.6,51.1,43.2,34.6,21.9,73,42,25,30.09,29.94,8,4,15,0.00
2013-6-25,78.1,65.1,51.3,47.2,41.0,36.4,68,45,23,30.18,30.06,8,2,12,0.00
2013-6-26,82.0,69.9,58.5,46.4,39.6,35.9,61,36,20,30.26,30.18,6,1,12,0.00
2013-6-27,85.5,70.8,57.9,43.7,36.9,25.4,52,30,20,30.30,30.26,6,1,13,0.00
2013-6-28,88.3,72.9,58.5,40.6,31.4,20.6,34,22,15,30.30,30.24,8,1,13,0.04
2013-6-29,92.2,75.1,61.7,40.2,31.5,25.3,32,21,12,30.26,30.18,6,1,13,0.00
2013-6-30,89.8,75.0,62.1,38.7,30.7,21.6,24,20,15,30.21,30.15,8,1,14,0.00
2013-7-1,85.4,71.9,62.7,43.9,36.6,26.5,40,28,19,30.21,30.18,6,1,11,0.00
2013-7-2,83.5,71.0,61.3,44.7,37.9,34.4,49,31,19,30.26,30.21,6,1,13,0.00
2013-7-3,87.7,73.2,62.1,42.3,39.1,34.6,45,31,18,30.24,30.12,7,1,12,0.00
2013-7-4,89.1,73.8,61.7,45.5,38.1,32.9,44,29,18,30.15,30.09,8,1,13,0.00
2013-7-5,84.4,71.6,60.4,42.5,35.5,28.4,43,28,16,30.12,30.06,6,1,12,0.00
2013-7-6,82.2,68.5,59.9,41.4,32.3,22.4,43,27,20,30.12,30.06,7,1,12,0.00
2013-7-7,84.7,71.1,58.1,37.3,28.7,19.3,27,21,16,30.15,30.09,8,2,14,0.00
2013-7-8,84.6,69.6,56.7,33.8,27.5,19.6,35,22,13,30.26,30.15,8,2,11,0.00
2013-7-9,86.5,71.9,58.8,37.3,29.5,22.2,25,21,16,30.30,30.24,6,1,12,0.08
2013-7-10,83.5,73.3,66.0,37.7,32.5,27.6,30,22,19,30.26,30.18,6,1,11,0.00
2013-7-11,70.0,65.4,60.1,48.2,39.9,31.1,57,40,27,30.21,30.12,5,0,6,0.00
2013-7-12,74.5,64.3,57.0,50.0,43.5,33.7,68,48,33,30.18,30.12,6,1,11,0.00
2013-7-13,79.8,66.4,55.0,45.3,36.5,30.9,59,35,21,30.21,30.15,5,0,7,0.00
2013-7-14,77.4,67.2,59.1,44.1,37.0,29.5,44,33,24,30.21,30.15,5,0,8,0.00
2013-7-15,79.9,67.1,58.5,44.3,36.1,25.0,49,33,23,30.18,30.09,8,2,15,0.00
2013-7-16,79.7,66.5,57.6,33.8,27.5,23.9,33,24,15,30.18,30.09,8,2,15,0.00
2013-7-17,84.0,66.8,50.0,29.7,22.1,9.7,28,19,14,30.24,30.18,5,1,10,0.00
2013-7-18,85.8,69.6,55.3,38.2,25.6,19.0,29,20,13,30.24,30.18,8,1,11,0.00
2013-7-19,83.1,71.1,59.9,37.9,30.3,18.4,27,22,18,30.21,30.12,6,0,8,0.00
2013-7-20,82.0,69.1,62.8,59.5,44.9,26.8,82,44,24,30.18,30.09,5,0,9,0.00
2013-7-21,69.3,63.0,56.7,60.2,55.5,50.4,96,78,51,30.18,30.09,5,0,10,0.04
2013-7-22,72.3,60.8,53.4,64.4,57.7,51.4,98,90,52,30.21,30.12,6,0,10,1.18
2013-7-23,75.0,63.2,53.6,64.2,54.7,50.5,98,77,44,30.24,30.18,6,1,12,0.04
2013-7-24,78.6,66.3,55.9,58.4,49.1,40.9,88,57,34,30.21,30.18,5,1,10,0.00
2013-7-25,81.3,68.3,56.5,48.9,41.9,35.9,60,40,27,30.30,30.21,8,1,13,0.00
2013-7-26,72.3,63.7,58.5,62.3,50.3,35.3,96,65,35,30.32,30.24,3,0,6,0.31
2013-7-27,75.6,64.5,56.7,62.2,51.2,38.5,97,66,32,30.26,30.15,6,1,11,0.04
2013-7-28,77.2,64.2,54.9,46.4,37.7,25.5,57,39,22,30.18,30.09,8,2,13,0.00
2013-7-29,78.4,62.5,51.3,35.1,28.4,22.1,40,29,15,30.24,30.12,7,1,11,0.00
2013-7-30,80.4,67.3,54.9,42.3,37.2,31.1,59,35,21,30.26,30.24,7,1,12,0.00
2013-7-31,79.9,67.3,54.9,40.1,32.4,16.0,52,29,19,30.26,30.21,8,1,13,0.00
2013-8-1,80.4,68.1,58.1,28.5,21.3,13.4,21,17,15,30.21,30.12,8,2,13,0.04
2013-8-2,81.7,67.1,57.2,28.5,20.2,12.7,20,17,14,30.15,30.12,7,2,13,0.00
2013-8-3,79.7,67.1,57.2,27.9,20.2,12.7,24,17,15,30.18,30.12,9,2,13,0.00
2013-8-4,80.6,68.3,57.6,28.8,22.1,13.2,25,17,14,30.21,30.15,8,2,13,0.00
2013-8-5,80.1,68.4,58.3,28.2,21.2,13.6,19,17,15,30.21,30.18,8,2,15,0.00
2013-8-6,78.6,66.1,55.2,27.1,21.1,11.8,22,18,15,30.21,30.15,7,2,14,0.00
2013-8-7,75.4,64.5,55.6,25.8,21.1,11.8,25,19,15,30.21,30.18,8,3,16,0.00
2013-8-8,72.5,62.2,53.1,30.9,23.1,15.5,36,23,16,30.18,30.12,8,3,13,0.00
2013-8-9,73.9,62.0,51.1,32.1,23.8,14.0,36,23,19,30.15,30.09,8,2,17,0.00
2013-8-10,75.4,62.5,49.3,28.9,22.6,12.6,29,22,18,30.18,30.09,8,2,12,0.00
2013-8-11,78.1,61.9,48.0,33.1,24.4,17.4,39,24,15,30.18,30.12,7,1,12,0.00
2013-8-12,80.4,64.3,49.1,34.2,27.8,20.5,43,26,17,30.21,30.12,7,1,12,0.00
2013-8-13,80.4,65.1,50.5,34.6,28.2,20.8,36,26,15,30.21,30.18,6,1,11,0.00
2013-8-14,83.1,66.9,52.3,32.1,25.8,19.5,30,22,14,30.21,30.18,7,1,12,0.00
2013-8-15,83.1,68.4,56.8,40.3,34.2,25.1,41,29,20,30.24,30.18,7,1,13,0.00
2013-8-16,83.0,68.9,56.5,65.0,43.2,38.4,98,43,23,30.24,30.21,8,2,14,0.00
2013-8-17,84.0,72.1,58.3,45.1,38.2,33.8,61,30,20,30.24,30.15,10,3,15,0.00
2013-8-18,82.2,69.3,61.9,57.7,46.1,39.2,71,45,25,30.21,30.15,8,1,14,0.00
2013-8-19,80.4,67.7,59.7,52.6,47.7,41.0,76,51,28,30.21,30.18,5,0,8,0.00
2013-8-20,82.9,68.7,57.3,50.4,37.4,28.6,72,36,17,30.21,30.15,7,2,13,0.00
2013-8-21,82.0,70.3,60.1,40.2,35.2,28.2,43,28,20,30.21,30.18,8,2,14,0.00
2013-8-22,82.0,70.4,59.4,39.9,36.4,32.1,45,30,20,30.21,30.15,8,2,13,0.00
2013-8-23,79.3,67.0,55.4,40.9,34.9,26.9,51,32,20,30.18,30.09,8,2,15,0.00
2013-8-24,78.1,66.2,56.6,44.9,31.8,22.6,61,30,18,30.15,30.09,9,2,22,0.00
2013-8-25,76.6,64.3,53.4,49.5,41.6,33.2,76,46,26,30.18,30.12,8,2,14,0.00
2013-8-26,64.8,60.3,55.9,57.2,51.5,44.6,90,73,55,30.18,30.12,5,0,6,0.00
2013-8-27,76.5,63.3,53.1,60.0,51.5,47.0,97,68,36,30.15,30.09,6,1,12,0.00
2013-8-28,80.7,66.5,54.5,52.6,49.2,45.1,86,58,31,30.21,30.12,8,1,13,0.00
2013-8-29,74.2,64.3,57.4,59.6,53.8,47.9,91,70,42,30.26,30.21,5,0,9,0.00
2013-8-30,73.6,62.7,57.0,64.5,58.6,53.2,98,87,50,30.26,30.24,5,0,8,0.00
2013-8-31,75.4,64.0,58.6,61.8,57.9,53.2,98,82,47,30.24,30.18,8,2,15,0.00
2013-9-1,78.6,65.8,57.9,56.1,44.2,38.5,92,49,25,30.21,30.15,8,1,13,0.00
2013-9-2,78.1,66.0,55.0,53.5,46.8,41.7,74,52,31,30.21,30.15,8,2,13,0.00
2013-9-3,80.4,67.6,58.5,52.4,47.8,43.0,76,52,30,30.24,30.15,7,2,13,0.00
2013-9-4,79.7,66.3,58.1,54.7,48.9,42.7,74,55,31,30.24,30.21,6,1,10,0.00
2013-9-5,81.9,66.1,56.5,53.4,47.5,40.2,82,55,25,30.24,30.21,7,1,13,0.00
2013-9-6,82.0,67.3,56.8,52.3,44.5,35.3,77,47,22,30.24,30.18,8,2,15,0.00
2013-9-7,77.4,62.7,57.0,57.5,49.5,40.1,86,64,29,30.21,30.15,3,0,8,0.00
2013-9-8,79.0,64.6,52.0,51.1,39.4,31.3,91,44,20,30.18,30.09,6,1,13,0.28
2013-9-9,74.1,60.3,51.4,59.1,46.6,38.9,98,66,30,30.15,30.03,5,1,11,0.04
2013-9-10,71.9,60.1,52.7,45.3,40.3,35.3,75,50,31,30.15,30.03,6,1,12,0.00
2013-9-11,72.3,59.9,50.5,39.5,33.3,28.8,62,39,23,30.18,30.12,7,1,12,0.00
2013-9-12,75.4,61.6,50.7,38.2,31.3,26.4,52,34,20,30.18,30.12,6,1,12,0.00
2013-9-13,78.1,62.2,50.4,36.1,30.0,23.9,46,31,20,30.15,30.03,7,1,11,0.00
2013-9-14,80.2,64.4,52.5,40.7,34.6,31.5,60,35,21,30.35,30.03,5,0,8,0.00
2013-9-15,81.3,66.5,53.2,39.7,34.7,31.6,45,32,20,30.35,30.09,6,1,12,0.00
2013-9-16,78.3,65.5,52.7,39.2,34.0,31.4,46,32,21,30.15,30.09,8,2,13,0.00
2013-9-17,75.6,64.1,55.0,36.7,27.5,15.2,48,27,15,30.09,30.00,7,2,15,0.00
2013-9-18,75.2,62.6,52.0,28.6,19.7,11.2,27,19,15,30.03,29.97,6,1,12,0.00
2013-9-19,75.2,60.9,47.7,28.8,22.1,16.0,32,23,16,30.09,30.03,3,0,6,0.00
2013-9-20,75.0,60.1,49.3,34.7,26.3,19.6,37,28,18,30.09,30.03,8,2,13,0.00
2013-9-21,68.2,56.7,44.4,39.9,20.9,6.4,72,29,15,30.06,29.88,10,4,17,0.00
2013-9-22,64.4,50.0,37.9,33.9,22.2,15.8,83,37,18,30.06,29.88,8,3,15,0.00
2013-9-23,74.1,59.4,44.4,31.8,23.4,16.9,38,25,19,30.15,30.03,6,1,10,0.00
2013-9-24,72.5,57.3,44.8,31.3,24.9,18.1,40,30,17,30.15,30.06,8,2,13,0.00
2013-9-25,64.0,54.8,46.9,35.7,23.8,12.0,61,31,20,30.06,29.82,13,6,22,0.00
2013-9-26,52.5,42.9,34.3,32.7,19.0,8.0,75,41,22,29.97,29.76,13,4,21,0.00
2013-9-27,58.5,43.7,33.6,20.5,15.0,9.1,50,33,19,30.15,29.97,7,1,15,0.00
2013-9-28,68.9,51.3,34.7,25.0,15.8,7.2,38,25,17,30.21,30.15,8,1,11,0.00
2013-9-29,72.9,56.7,40.3,26.3,17.6,10.3,29,22,16,30.24,30.18,6,1,13,0.00
2013-9-30,74.5,59.2,45.7,25.5,19.3,10.8,27,22,16,30.21,30.09,6,1,9,0.00
2013-10-1,72.5,60.3,44.2,30.8,25.1,14.7,39,27,16,30.12,30.09,7,2,12,0.00
2013-10-2,64.5,53.3,48.5,27.8,21.0,12.3,36,28,21,30.09,30.03,5,0,9,0.00
2013-10-3,66.9,53.9,44.1,26.2,17.8,8.6,36,24,17,30.06,29.97,8,2,12,0.00
2013-10-4,56.8,45.0,37.4,15.6,10.0,4.4,29,24,17,30.24,30.03,5,1,12,0.00
2013-10-5,61.2,48.6,39.2,16.0,10.9,6.0,29,22,16,30.30,30.21,7,1,17,0.00
2013-10-6,73.9,55.5,41.2,24.9,13.5,4.1,28,19,15,30.30,30.21,6,1,8,0.00
2013-10-7,67.3,53.0,42.8,21.5,13.3,4.4,33,21,16,30.21,30.06,7,2,13,0.00
2013-10-8,64.4,51.3,40.1,32.7,21.5,14.0,67,33,18,30.09,29.85,6,2,11,0.00
2013-10-9,42.3,35.0,28.6,34.7,29.8,16.0,97,84,35,29.88,29.70,10,3,25,0.00
2013-10-10,48.7,36.5,25.0,39.3,31.2,23.5,97,82,53,30.03,29.73,5,1,9,0.00
2013-10-11,58.3,42.9,30.4,37.7,28.3,23.8,90,61,34,30.09,30.03,6,1,8,0.00
2013-10-12,60.6,45.1,32.4,34.1,28.1,21.6,78,55,28,30.06,30.00,6,1,11,0.00
2013-10-13,58.1,46.3,36.1,32.6,23.2,15.0,69,43,25,30.09,30.00,7,2,12,0.00
2013-10-14,57.4,43.9,33.4,27.4,20.8,15.8,65,42,27,30.15,30.09,2,0,6,0.00
2013-10-15,59.5,43.4,30.2,23.8,17.7,10.8,62,38,25,30.15,30.06,5,0,10,0.00
2013-10-16,62.4,47.0,35.6,21.9,14.2,4.1,39,27,19,30.18,30.12,6,1,8,0.00
2013-10-17,63.9,47.3,33.4,21.8,12.1,1.3,33,24,18,30.18,30.09,6,1,12,0.00
2013-10-18,64.6,48.7,36.7,23.2,13.8,2.2,40,25,18,30.21,30.12,5,0,7,0.00
2013-10-19,69.1,50.7,36.0,22.4,10.9,0.7,27,20,17,30.21,30.18,7,1,11,0.00
2013-10-20,68.2,50.9,37.0,21.9,11.4,1.1,28,21,15,30.18,30.09,6,1,13,0.00
2013-10-21,68.5,50.2,36.3,22.0,12.7,2.9,29,22,17,30.18,30.12,6,0,9,0.00
2013-10-22,68.4,50.9,37.6,23.6,15.1,7.0,31,24,17,30.18,30.12,6,0,9,0.00
2013-10-23,66.0,52.5,38.5,24.4,17.0,10.3,38,25,18,30.09,30.06,6,1,10,0.00
2013-10-24,64.4,49.5,36.7,25.6,15.9,9.7,39,27,18,30.18,30.06,5,0,8,0.00
2013-10-25,66.4,54.1,37.0,26.1,17.4,9.2,36,24,17,30.26,30.18,7,0,9,0.00
2013-10-26,65.8,52.0,38.7,26.0,18.3,10.0,36,27,20,30.26,30.18,5,1,8,0.00
2013-10-27,63.0,48.7,38.7,33.8,21.2,14.7,78,35,21,30.21,29.82,15,4,25,0.00
2013-10-28,42.1,35.4,30.4,38.1,32.3,24.6,98,89,65,29.88,29.79,18,8,31,0.00
2013-10-29,40.9,33.8,27.9,33.2,29.9,26.6,98,86,67,29.94,29.85,9,2,17,0.00
2013-10-30,54.5,38.7,28.4,32.4,22.1,9.7,94,58,26,30.09,29.94,6,1,11,0.08
2013-10-31,61.0,42.9,28.8,21.5,14.1,5.4,65,33,19,30.18,30.09,5,0,8,0.00
2013-11-1,63.9,46.9,33.6,24.7,18.1,6.0,60,34,21,30.24,30.15,5,1,6,0.00
2013-11-2,62.8,45.6,33.3,23.6,12.9,-1.1,50,28,18,30.18,30.00,8,1,12,0.00
2013-11-3,63.0,46.1,35.6,22.4,16.1,3.7,50,31,18,30.00,29.91,7,2,10,0.00
2013-11-4,54.1,41.1,33.6,32.2,16.6,3.5,52,38,23,30.00,29.82,7,1,10,0.00
2013-11-5,50.5,37.8,28.2,17.0,7.4,-1.2,51,30,19,30.21,30.00,6,2,12,0.00
2013-11-6,59.4,43.3,29.3,16.3,6.6,-4.3,32,22,17,30.30,30.21,7,1,8,0.00
2013-11-7,66.0,47.9,34.0,24.0,14.3,7.8,34,26,18,30.26,30.18,6,0,9,0.00
2013-11-8,65.3,48.4,36.0,22.3,11.3,2.6,29,23,17,30.18,30.09,5,1,9,0.00
2013-11-9,63.9,47.1,34.5,19.6,9.1,-0.5,30,22,16,30.21,30.12,6,1,11,0.00
2013-11-10,66.4,47.9,36.3,21.2,11.5,2.9,30,23,15,30.21,30.18,6,1,13,0.00
2013-11-11,66.6,49.8,36.9,21.2,11.1,0.9,27,21,15,30.30,30.18,8,1,11,0.00
2013-11-12,66.4,51.7,39.7,26.1,14.7,4.9,30,23,17,30.32,30.26,5,0,7,0.00
2013-11-13,68.0,50.3,38.1,27.0,16.1,9.4,33,26,17,30.26,30.18,6,1,10,0.00
2013-11-14,64.5,48.9,36.0,24.7,16.7,8.9,41,28,18,30.21,29.94,9,2,15,0.00
2013-11-15,54.8,43.7,28.6,31.1,22.1,15.4,77,44,27,29.94,29.76,12,3,16,0.00
2013-11-16,52.7,37.3,27.0,37.7,27.8,21.0,98,71,33,29.91,29.79,6,1,10,0.00
2013-11-17,57.4,40.6,30.0,31.7,27.9,22.1,87,64,32,30.09,29.91,7,1,10,0.00
2013-11-18,58.8,42.8,29.3,32.5,24.1,13.0,87,51,26,30.12,30.06,6,1,10,0.00
2013-11-19,58.3,47.1,38.9,22.1,16.2,9.7,43,29,19,30.06,29.97,8,2,12,0.00
2013-11-20,55.4,44.1,37.0,39.3,31.4,22.1,96,64,40,29.97,29.91,7,2,15,0.00
2013-11-21,40.8,36.3,31.8,39.5,35.3,31.3,98,96,87,29.91,29.85,9,1,16,0.00
2013-11-22,33.8,29.8,26.4,32.0,28.3,25.4,98,94,83,29.91,29.85,0,0,4,0.00
2013-11-23,38.7,30.0,25.9,34.6,28.8,25.4,98,95,82,30.03,29.91,5,0,6,0.00
2013-11-24,39.5,31.0,24.3,35.9,26.9,23.4,98,86,56,30.15,30.00,3,0,6,0.12
2013-11-25,49.6,39.2,29.5,27.0,18.6,10.3,87,48,27,30.24,30.15,8,3,10,0.04
2013-11-26,56.5,43.3,32.7,23.4,19.0,12.5,53,38,27,30.24,30.12,6,1,8,0.00
2013-11-27,53.1,40.3,30.2,28.9,22.8,16.3,80,52,29,30.12,29.97,7,1,9,0.00
2013-11-28,47.7,36.5,27.9,28.3,21.9,17.7,79,57,34,30.09,29.97,10,1,13,0.00
2013-11-29,48.0,36.4,28.2,36.4,28.4,21.1,98,75,40,30.18,30.06,5,0,6,0.00
2013-11-30,48.7,36.0,26.4,41.0,28.1,23.5,98,77,41,30.21,30.15,3,0,6,0.00
2013-12-1,54.1,45.1,31.5,27.2,11.0,2.9,60,26,18,30.30,30.24,5,1,8,0.00
2013-12-2,60.3,45.1,34.2,26.0,12.2,5.1,43,27,19,30.24,30.00,7,1,9,0.00
2013-12-3,53.2,42.8,34.2,36.6,22.2,7.0,98,51,23,30.00,29.70,18,7,33,0.00
2013-12-4,34.9,27.7,19.8,33.7,17.6,7.0,98,70,31,29.85,29.70,15,4,30,0.00
2013-12-5,32.9,23.9,16.8,19.5,16.6,13.4,90,75,45,29.94,29.79,7,2,12,0.00
2013-12-6,36.7,25.4,17.4,23.9,18.1,5.0,97,76,27,29.97,29.91,7,2,11,0.00
2013-12-7,28.4,23.8,18.7,27.9,21.7,4.7,98,92,46,29.94,29.82,15,6,28,0.00
2013-12-8,36.8,22.9,13.3,18.2,5.4,-7.8,98,52,24,30.00,29.91,7,1,12,0.00
2013-12-9,31.3,21.8,10.2,-1.0,-7.5,-13.7,38,27,20,30.21,30.00,8,2,13,0.00
2013-12-10,45.3,28.7,17.1,12.9,-0.7,-10.1,41,28,20,30.18,30.09,5,1,6,0.00
2013-12-11,46.8,31.9,19.4,14.0,2.3,-4.5,40,28,21,30.18,30.12,6,1,6,0.00
2013-12-12,43.5,34.0,27.5,31.8,15.0,-1.2,79,49,23,30.18,30.12,6,0,7,0.00
2013-12-13,47.3,37.3,28.5,11.1,7.6,3.0,42,29,22,30.24,30.09,7,2,12,0.00
2013-12-14,50.9,37.5,27.6,13.9,5.7,-1.0,42,27,19,30.35,30.21,7,2,16,0.00
2013-12-15,59.5,46.4,34.9,17.1,10.5,2.0,31,23,19,30.32,30.26,8,2,13,0.00
2013-12-16,63.9,48.1,38.8,25.1,15.5,6.1,38,27,21,30.32,30.26,6,1,11,0.00
2013-12-17,66.7,49.3,38.3,28.2,16.1,10.6,36,27,17,30.30,30.18,6,0,8,0.00
2013-12-18,60.8,48.2,35.8,23.7,16.5,9.5,42,28,22,30.18,29.82,10,2,20,0.00
2013-12-19,38.2,31.7,26.6,31.2,24.5,7.7,98,78,32,29.82,29.67,10,3,19,0.00
2013-12-20,37.5,29.9,22.8,28.1,17.1,1.5,98,64,31,29.91,29.73,6,0,9,0.00
2013-12-21,47.3,36.9,28.9,24.3,18.6,13.9,68,48,32,30.06,29.88,7,1,13,0.00
2013-12-22,51.3,36.7,25.5,21.9,15.8,8.7,75,45,21,30.26,30.06,5,0,11,0.00
2013-12-23,53.2,41.4,32.4,23.0,17.6,11.7,59,40,26,30.32,30.24,6,1,8,0.00
2013-12-24,55.2,41.1,31.1,23.7,17.2,13.4,54,39,20,30.30,30.24,7,1,11,0.00
2013-12-25,52.5,39.9,26.2,14.7,7.8,-0.6,56,28,18,30.32,30.24,6,1,13,0.00
2013-12-26,52.9,43.5,33.6,10.5,5.2,-0.6,23,20,18,30.26,30.21,8,3,16,0.00
2013-12-27,57.7,43.7,33.6,13.2,6.0,-1.1,30,21,17,30.26,30.18,6,1,10,0.00
2013-12-28,56.1,43.4,35.8,14.1,6.7,0.6,29,22,17,30.15,30.03,8,2,13,0.00
2013-12-29,47.8,38.1,31.5,7.5,3.5,-4.8,31,23,19,30.21,30.09,8,2,16,0.00
2013-12-30,59.2,41.6,28.6,14.3,3.2,-7.5,26,20,17,30.26,30.21,7,1,10,0.00
2013-12-31,59.9,44.0,35.8,17.5,5.7,0.6,23,20,17,30.24,30.15,8,1,13,0.00
2014-1-1,59.4,42.4,32.7,22.1,10.5,0.9,42,27,19,30.24,30.18,5,1,7,0.00
2014-1-2,59.0,42.3,30.2,23.6,15.4,9.9,46,35,22,30.21,30.12,6,0,9,0.00